Hourly Data Report for September 14, 2017

All times are specified in Local Standard Time (LST). Add 1 hour to adjust for Daylight Saving Time where and when it is observed.

OTTAWA INTL A
ONTARIO

45°19'00.000" N
75°40'00.000" W
114.90 m
6106001
71628
YOW

Download Data

Hourly Data (September 2017)
Hourly Data Report for September 14, 2017
Temp Definition
°C
Dew Point Temp Definition
°C
Rel Hum Definition
%
Wind Dir Definition
10's deg

Wind Spd Definition
km/h
Visibility Definition
km
Stn Press Definition
kPa
Hmdx Definition


Wind Chill Definition


Weather Definition


TIME
00:00 Legend Double Dagger 15.8 14.2 90 19 8 24.1 99.54     LegendNANA
01:00 Legend Double Dagger 15.6 14.0 90 20 11 24.1 99.55     Mainly Clear
02:00 Legend Double Dagger 14.7 13.8 94 17 3 24.1 99.55     LegendNANA
03:00 Legend Double Dagger 13.5 12.9 96 23 4 24.1 99.55     LegendNANA
04:00 Legend Double Dagger 14.2 13.6 97 30 4 24.1 99.56     Mainly Clear
05:00 Legend Double Dagger 13.1 12.7 97 20 10 24.1 99.60     LegendNANA
06:00 Legend Double Dagger 11.9 11.6 98 18 4 24.1 99.64     LegendNANA
07:00 Legend Double Dagger 14.9 14.0 94 25 4 24.1 99.69     Mainly Clear
08:00 Legend Double Dagger 18.0 15.3 84 31 7 24.1 99.72     LegendNANA
09:00 Legend Double Dagger 20.4 15.7 74 30 4 24.1 99.75 25   LegendNANA
10:00 Legend Double Dagger 22.5 17.0 70 27 6 24.1 99.74 28   Mainly Clear
11:00 Legend Double Dagger 23.9 17.0 65 0 1 24.1 99.73 29   LegendNANA
12:00 Legend Double Dagger 25.4 16.7 58 33 4 24.1 99.70 30   LegendNANA
13:00 Legend Double Dagger 26.4 16.7 55 21 8 24.1 99.68 31   Clear
14:00 Legend Double Dagger 26.5 14.8 48 24 5 24.1 99.69 30   LegendNANA
15:00 Legend Double Dagger 27.3 14.7 45 29 9 24.1 99.69 31   LegendNANA
16:00 Legend Double Dagger 26.6 13.9 45 26 9 24.1 99.68 30   Mainly Clear
17:00 Legend Double Dagger 25.5 15.4 53 28 12 24.1 99.73 30   LegendNANA
18:00 Legend Double Dagger 23.3 14.4 57 29 9 24.1 99.82 27   LegendNANA
19:00 Legend Double Dagger 21.2 13.9 63 31 5 24.1 99.90 25   Mostly Cloudy
20:00 Legend Double Dagger 18.0 13.5 75 36 3 24.1 99.93     LegendNANA
21:00 Legend Double Dagger 18.1 13.5 74 35 4 24.1 99.96     LegendNANA
22:00 Legend Double Dagger 18.6 14.2 75 1 3 24.1 100.01     Mostly Cloudy
23:00 Legend Double Dagger 17.9 14.4 80 2 3 24.1 100.04     LegendNANA

Notes on Data Quality.

Legend

  • E = Estimated
  • M = Missing
  • NA = Not Available
  • ‡ = Partner data that is not subject to review by the National Climate Archives
Date modified: